Regional Weather Roundup
Issued by NWS

Home | Current Version | Previous Version | Graphics & Text | Print | Product List | Glossary On
Versions: 1 2 3 4 5 6 7 8 9 10 11 12 13 14 15 16 17 18 19 20 21 22 23 24 25 26 27
000
ASUS45 KSLC 221110
RWRUT

UTAH REGIONAL WEATHER ROUNDUP
NATIONAL WEATHER SERVICE SALT LAKE CITY UT
500 AM MDT WED OCT 22 2014

UTZ001>011-023>025-221200-

NORTHERN UTAH

CITY           SKY/WX    TMP DP  RH WIND       PRES   REMARKS
BRIGHAM CITY   CLEAR     36  29  77 CALM      30.15R
HILL AFB       CLEAR     39  28  63 SE14      30.14R WCI  31
LOGAN          CLEAR     28  25  88 W3        30.16R
OGDEN          CLEAR     38  32  79 S6        30.14R WCI  33
PROVO AIRPORT  CLEAR     37  28  70 SE6       30.14R WCI  33
SALT LAKE CITY   N/A     41  34  76 SE5       30.14R
VERNAL         CLEAR     42  38  85 NW3       30.11R
WENDOVER         N/A     39  28  65 CALM      30.13S
HEBER CITY     CLEAR     28  27  93 CALM      30.16R
WEST JORDAN    CLEAR     37  30  75 CALM      30.15R

$$

UTZ012>022-026-027-221200-

SOUTHERN/CENTRAL UTAH

CITY           SKY/WX    TMP DP  RH WIND       PRES   REMARKS
BLANDING       CLEAR     47  40  77 NE8       30.18R
BRYCE CANYON   CLEAR     32  29  88 CALM      30.18S
CEDAR CITY     CLEAR     42  31  64 CALM      30.12R
DELTA          CLEAR     41  24  49 CALM      30.13R
HANKSVILLE       N/A     46  34  61 CALM      30.05S
MILFORD        CLEAR     38  26  62 NE3       30.12R
MOAB/CYNLANDS  PTCLDY    52  42  69 CALM      30.03R
PRICE          CLEAR     42  34  73 N5        30.09R
ST GEORGE      SUNNY     57  36  44 CALM      30.00R
KANAB            N/A     43  36  75 NE3       30.12R

$$

REGIONAL REPORTS     COLORADO/ARIZONA

CITY           SKY/WX    TMP DP  RH WIND       PRES   REMARKS
CRAIG, CO      MOCLDY    41  37  86 S6        30.14R
GRAND JUNCTION MOCLDY    42  40  92 CALM      30.07R
RIFLE          PTCLDY    45  43  93 CALM      30.13S
MONTROSE       CLOUDY    46  41  82 SE5       30.14R
CORTEZ         CLEAR     39  37  92 CALM      30.12R
PAGE, AZ       CLEAR     59  38  45 CALM      30.03S
GRAND CANYON   CLEAR     31  26  82 E3        30.16F
KINGMAN        CLEAR     59  36  42 S6        29.99R
FLAGSTAFF      CLEAR     38  34  85 CALM      30.19R

$$

REGIONAL REPORTS    NEVADA/IDAHO/WYOMING

CITY           SKY/WX    TMP DP  RH WIND       PRES   REMARKS
LAS VEGAS, NV  PTCLDY    63  27  25 S8        29.88R
ELY              N/A     27  11  51 S10       30.17R WCI  17
ELKO           CLEAR     31  18  58 E3        30.15R
POCATELLO, ID  CLEAR     32  29  88 CALM      30.15R
BURLEY         CLEAR     34  28  79 N3        30.13R
EVANSTON, WY   CLEAR     33  25  72 NE3       30.17R
ROCK SPRINGS   CLEAR     33  26  75 SW8       30.16R WCI  26

$$



USA.gov is the U.S. government's official web portal to all federal, state and local government web resources and services.